Location: OHP
(43.9325°N, 5.7154°E)
Time: 02:07:57
(UTC+01:00)

Envisat - Visible Passes

Search period start: 18 October 2019 00:00
Search period end: 27 October 2019 23:00
Orbit: 764 x 766 km, 98.1° (Epoch: 17 October)

Date Brightness Start Highest point End Pass type
(mag) Time Alt. Az. Time Alt. Az. Time Alt. Az.
18 Oct 5.4 19:45:48 10° SW 19:49:47 23° W 19:53:47 10° NW visible
19 Oct 6.3 06:14:44 10° ENE 06:17:20 14° E 06:19:56 10° ESE visible
19 Oct 4.0 19:07:52 10° S 19:12:46 49° W 19:17:43 10° NNW visible
20 Oct 2.9 18:30:54 10° SSE 18:35:58 78° ENE 18:41:04 10° N visible
20 Oct 6.1 20:13:13 10° WSW 20:15:34 13° W 20:17:56 10° WNW visible
21 Oct 5.0 19:34:04 10° SSW 19:38:25 29° W 19:42:49 10° NW visible
22 Oct 6.7 06:04:45 10° ENE 06:05:55 11° E 06:07:06 10° E visible
22 Oct 3.5 18:56:28 10° S 19:01:28 62° WSW 19:06:31 10° NNW visible
23 Oct 3.0 18:19:44 10° SSE 18:24:44 62° ENE 18:29:45 10° N visible
23 Oct 5.8 20:00:58 10° SW 20:04:10 17° W 20:07:24 10° NW visible
24 Oct 6.0 06:28:08 10° NE 06:31:45 19° E 06:35:21 10° SE visible
24 Oct 4.6 19:22:27 10° SSW 19:27:05 36° W 19:31:45 10° NNW visible
25 Oct 3.2 18:45:08 10° S 18:50:12 78° WSW 18:55:18 10° NNW visible
26 Oct 3.2 18:08:38 10° SE 18:13:30 49° ENE 18:18:24 10° N visible
26 Oct 5.5 19:49:00 10° SW 19:52:47 21° W 19:56:37 10° NW visible
27 Oct 6.2 05:17:25 10° NE 05:20:22 15° E 05:23:17 10° SE visible
27 Oct 4.2 18:10:55 10° S 18:15:45 45° W 18:20:38 10° NNW visible
